Regional Weather Roundup
Issued by NWS Little Rock, AR

Home | Current Version | Previous Version | Graphics & Text | Print | Product List | Glossary On
Versions: 1 2 3 4 5 6 7 8 9 10 11 12 13 14 15 16 17 18 19 20 21 22 23 24 25 26 27 28 29 30 31 32 33 34 35 36 37 38 39 40 41 42 43 44 45 46 47 48 49 50
000
ASUS44 KLZK 232005
RWRLZK

WEATHER ROUNDUP FOR ARKANSAS
NATIONAL WEATHER SERVICE LITTLE ROCK AR
300 PM CDT WED JUL 23 2014

NOTE: "FAIR" INDICATES FEW OR NO CLOUDS BELOW 12,000 FEET WITH NO
SIGNIFICANT WEATHER AND/OR OBSTRUCTIONS TO VISIBILITY.

ARZ001-003-010-029-232100-
NORTHWEST ARKANSAS

CITY           SKY/WX    TMP DP  RH WIND       PRES   REMARKS
FAYETTEVILLE   LGT RAIN  72  70  93 NW22G32   30.09F
FORT SMITH     RAIN      75  70  84 NW29G66   30.00F SQUALL
HARRISON       MOSUNNY   93  75  55 N15G21    30.00F HX 104
BENTONVILLE    CLOUDY    73  63  68 N18G30    30.12
ROGERS         CLOUDY    73  64  73 NW17G23   30.11F
SILOAM SPGS    CLOUDY    70  61  73 N20G29    30.12F
HIGHFILL       CLOUDY    72  69  90 NW20G30   30.09F
SPRINGDALE     CLOUDY    73  66  78 NW25G37   30.11F
$$

ARZ004-005-016-232100-
NORTH CENTRAL ARKANSAS

CITY           SKY/WX    TMP DP  RH WIND       PRES   REMARKS
BATESVILLE     CLOUDY    88  79  74 CALM      29.96F HX 102
FLIPPIN        PTSUNNY   75  64  69 E14G30    29.99R THUNDER
MTN HOME       TSTM      71  66  84 E12       30.03R
$$

ARZ040-041-232100-
WEST CENTRAL ARKANSAS

CITY           SKY/WX    TMP DP  RH WIND       PRES   REMARKS
MENA           MOSUNNY   95  79  59 W6        30.01F HX 112
MOUNT IDA      PTSUNNY   88  78  72 VRB3      29.96F HX 101
$$

ARZ009-017-025-026-028-232100-
NORTHEAST ARKANSAS

CITY           SKY/WX    TMP DP  RH WIND       PRES   REMARKS
CORNING        TSTM      72  72 100 W22       30.12R
JONESBORO      TSTM      70  64  83 NE44G58   30.08R FOG
NEWPORT        MOSUNNY   91  76  61 S9        29.98F HX 102
WALNUT RIDGE   PTSUNNY   73  52  46 N28G43    30.16R THUNDER
BLYTHEVILLE    LGT RAIN  74  66  76 S10       30.02F
NW BLYTHEVILLE PTSUNNY   73  64  73 S8        30.03F
$$

ARZ022-023-033-042-044-232100-
CENTRAL ARKANSAS

CITY           SKY/WX    TMP DP  RH WIND       PRES   REMARKS
LITTLE ROCK    PTSUNNY   91  74  57 S12       29.95F HX 100
N LITTLE ROCK  PTSUNNY   88  77  69 S12       29.95F HX 101
JACKSONVILLE   MOSUNNY   89  76  64 S9        29.93F HX 100
SEARCY         MOSUNNY   91  78  65 S9        29.96F HX 105
HOT SPRINGS    MOSUNNY   87  75  67 S6        29.97F HX  96
RUSSELLVILLE   TSTM      73  70  90 NE30G38   30.07R VSB 3/4
CLINTON        PTSUNNY   79  72  78 SE3       29.95F THUNDER
$$

ARZ036-232100-
EAST ARKANSAS

CITY           SKY/WX    TMP DP  RH WIND       PRES   REMARKS
WEST MEMPHIS   SUNNY     90  74  59 SW6       29.99F HX  99
$$

ARZ050-053-066-070-073-232100-
SOUTHWEST ARKANSAS

CITY           SKY/WX    TMP DP  RH WIND       PRES   REMARKS
ARKADELPHIA    FAIR      92  78  63 SW8       29.99F HX 107
CAMDEN         MOSUNNY   91  72  52 SW3       30.00F HX  98
TEXARKANA      PTSUNNY   90  73  57 VRB5      30.03S HX  98
EL DORADO      MOSUNNY   89  71  55 CALM      30.01F HX  95
DE QUEEN       MOSUNNY   90  77  65 W9        29.98F HX 103
$$

ARZ056-057-069-232100-
SOUTHEAST ARKANSAS

CITY           SKY/WX    TMP DP  RH WIND       PRES   REMARKS
PINE BLUFF     SUNNY     90  72  55 SW8       29.98F HX  97
STUTTGART      SUNNY     91  73  55 SW7       29.99F HX 100
MONTICELLO     MOSUNNY   89  70  53 VRB3      29.99F HX  94

$$




USA.gov is the U.S. government's official web portal to all federal, state and local government web resources and services.